STARLINK-35238, 65841

Orbit data source: Space-Track

STARLINK-35238, 65841 is a payload satellite owned by SpaceX/Seattle (US) in LEO that was launched on Mon, 29 Sep 2025 UTC via an FALCON 9 launch vehicle from the Air Force Western Test Range (AFWTR). Payload-class satellites include a variety of spacecraft equipped with specific instruments for various scientific and technological missions. These include communications satellites like Starlink; space stations such as the ISS; scientific satellites like the Hubble; Earth observation satellites from companies like Planet Labs, Umbra, and HawkEye 360; GPS; miniature CubeSats for education and research; and military/defense satellites.

Loading next visibility...
Identifier
65841, 2025-221U
Orbit
LEO
Country
Flag of USUS
Related business
Manufacturer
SpaceX/Seattle
Mission
Operational Commercial Communications
Bus & Motor
STARLINK V2MO, Unknown motor
Mass
575 kg wet, ~530 kg dry
Launch date (UTC)
2025-09-29 (2 months ago)
Launch vehicle
FALCON 9
Launch site
Air Force Western Test Range (AFWTR)
Object type
Payload
Rocket body
Debris
Shape & HBR
Box + 2 Pan, 17.7 m
Radar Cross Section
36.964 m²

Expand to show TLE details & history
Last TLE update: 16 hours ago

TLE from 16 hours ago
0 STARLINK-35238
1 65841U 25221U   25340.50209550  .00180212  00000-0  31640-2 0  9996
2 65841  53.1587 157.0710 0000915  90.4973 269.6140 15.49399588 10520
Epoch: 2025-12-06T12:03Z
TLE epoch observation values (Epoch: 2025-12-06T12:03:01.051Z)
Latitude
-0.00008°
Longitude
-99.21236°
Altitude
419.393 km
Speed
7.661 km/s
True Right ascension
10h 28m 17s
True Declination
0° 00' 00"
Sunlit
Object was in daylight at epoch
Visualization orbit readout
Latitude
Unknown
Longitude
Unknown
Altitude
Unknown
Speed
Unknown
Apparent Right ascension
Unknown
Apparent Declination
Unknown
Sunlit
N/A
Visualization observer readout
Local Sidereal Time
02:18:02
Azimuth
Unknown
Elevation
Unknown
Doppler factor
Unknown
Orbital elements
Apogee altitude
419.362 km
Perigee altitude
418.118 km
Semi-major axis
6,796.877 km
Eccentricity
0.00009
Inclination
53.1587°
RAAN
157.071°
Arg. of periapsis
90.4973°
True anomaly
269.60352°
Mean anomaly
269.614°
Eccentric anomaly
269.60876°
Mean motion
3.87328 °/min
Orbital period
92.94 mins
BSTAR
0.003164
Loading maneuver chart data...
Computing Atmospheric mass density...
Loading historical data...
Loading historical data...
Loading historical data...
Loading historical data...
Loading historical data...
Loading historical data...
Loading historical data...

Documentation

Showing up to 5 results
|